Time,TemperatureF,DewpointF,PressureIn,WindDirection,WindDirectionDegrees,WindSpeedMPH,WindSpeedGustMPH,Humidity,HourlyPrecipIn,Conditions,Clouds,dailyrainin,SolarRadiationWatts/m^2,SoftwareType,DateUTC
2013-09-18 00:04:00,52.0,48.0,-100.00,SSE,159,6.0,12.0,85,0.00,,,0.00,0.000000,,2013-09-18 05:04:00,
2013-09-18 00:43:00,53.0,48.0,-100.00,SSE,164,6.0,11.0,84,0.00,,,0.00,0.000000,,2013-09-18 05:43:00,
2013-09-18 00:53:00,53.0,48.0,-100.00,SSE,164,6.0,11.0,84,0.00,,,0.00,0.000000,,2013-09-18 05:53:00,
2013-09-18 01:02:00,53.0,48.0,-100.00,SSE,164,6.0,11.0,84,0.00,,,0.00,0.000000,,2013-09-18 06:02:00,
2013-09-18 01:12:00,53.0,48.0,-100.00,SSE,164,6.0,11.0,84,0.00,,,0.00,0.000000,,2013-09-18 06:12:00,
2013-09-18 01:42:00,53.0,48.0,-100.00,SSE,163,7.0,13.0,84,0.00,,,0.00,1.000000,,2013-09-18 06:42:00,
2013-09-18 01:52:00,53.0,48.0,-100.00,SSE,163,7.0,13.0,84,0.00,,,0.00,1.000000,,2013-09-18 06:52:00,
2013-09-18 02:01:00,53.0,48.0,-100.00,SSE,163,7.0,13.0,84,0.00,,,0.00,1.000000,,2013-09-18 07:01:00,
2013-09-18 02:12:00,53.0,48.0,-100.00,SSE,163,7.0,13.0,84,0.00,,,0.00,1.000000,,2013-09-18 07:12:00,
2013-09-18 02:42:00,54.0,50.0,-100.00,South,169,5.0,12.0,87,0.00,,,0.00,1.000000,,2013-09-18 07:42:00,
2013-09-18 02:52:00,54.0,50.0,-100.00,South,169,5.0,12.0,87,0.00,,,0.00,1.000000,,2013-09-18 07:52:00,
2013-09-18 03:02:00,54.0,50.0,-100.00,South,169,5.0,12.0,87,0.00,,,0.00,1.000000,,2013-09-18 08:02:00,
2013-09-18 03:12:00,54.0,50.0,-100.00,South,169,5.0,12.0,87,0.00,,,0.00,1.000000,,2013-09-18 08:12:00,
2013-09-18 03:42:00,54.0,51.0,-100.00,South,174,6.0,11.0,91,0.00,,,0.00,1.000000,,2013-09-18 08:42:00,
2013-09-18 03:52:00,54.0,51.0,-100.00,South,174,6.0,11.0,91,0.00,,,0.00,1.000000,,2013-09-18 08:52:00,
2013-09-18 04:02:00,54.0,51.0,-100.00,South,174,6.0,11.0,91,0.00,,,0.00,1.000000,,2013-09-18 09:02:00,
2013-09-18 04:12:00,54.0,51.0,-100.00,South,174,6.0,11.0,91,0.00,,,0.00,1.000000,,2013-09-18 09:12:00,
2013-09-18 04:13:00,54.0,52.0,-100.00,South,175,6.0,11.0,94,0.00,,,0.00,1.000000,,2013-09-18 09:13:00,
2013-09-18 04:43:00,54.0,52.0,-100.00,South,175,6.0,11.0,94,0.00,,,0.00,1.000000,,2013-09-18 09:43:00,
2013-09-18 04:53:00,54.0,52.0,-100.00,South,175,6.0,11.0,94,0.00,,,0.00,1.000000,,2013-09-18 09:53:00,
2013-09-18 05:03:00,54.0,52.0,-100.00,South,175,6.0,11.0,94,0.00,,,0.00,1.000000,,2013-09-18 10:03:00,
2013-09-18 05:43:00,54.0,53.0,-100.00,SSE,165,5.0,12.0,95,0.00,,,0.00,1.000000,,2013-09-18 10:43:00,
2013-09-18 05:53:00,54.0,53.0,-100.00,SSE,165,5.0,12.0,95,0.00,,,0.00,1.000000,,2013-09-18 10:53:00,
2013-09-18 06:02:00,54.0,53.0,-100.00,SSE,165,5.0,12.0,95,0.00,,,0.00,1.000000,,2013-09-18 11:02:00,
2013-09-18 06:12:00,54.0,53.0,-100.00,SSE,165,5.0,12.0,95,0.00,,,0.00,1.000000,,2013-09-18 11:12:00,
2013-09-18 06:42:00,54.0,53.0,-100.00,SSE,164,4.0,10.0,96,0.00,,,0.00,0.000000,,2013-09-18 11:42:00,
2013-09-18 06:52:00,54.0,53.0,-100.00,SSE,164,4.0,10.0,96,0.00,,,0.00,0.000000,,2013-09-18 11:52:00,
2013-09-18 07:01:00,54.0,53.0,-100.00,SSE,164,4.0,10.0,96,0.00,,,0.00,0.000000,,2013-09-18 12:01:00,
2013-09-18 07:12:00,54.0,53.0,-100.00,SSE,164,4.0,10.0,96,0.00,,,0.00,0.000000,,2013-09-18 12:12:00,
2013-09-18 07:43:00,54.0,53.0,-100.00,SSE,158,5.0,9.0,98,0.00,,,0.00,2.000000,,2013-09-18 12:43:00,
2013-09-18 07:52:00,54.0,53.0,-100.00,SSE,158,5.0,9.0,98,0.00,,,0.00,2.000000,,2013-09-18 12:52:00,
2013-09-18 08:02:00,54.0,53.0,-100.00,SSE,158,5.0,9.0,98,0.00,,,0.00,2.000000,,2013-09-18 13:02:00,
2013-09-18 08:11:00,54.0,53.0,-100.00,SSE,158,5.0,9.0,98,0.00,,,0.00,2.000000,,2013-09-18 13:11:00,
2013-09-18 22:13:00,59.0,59.0,-100.00,SSE,150,5.0,14.0,100,0.00,,,0.00,1.000000,,2013-09-19 03:13:00,
2013-09-18 23:01:00,59.0,59.0,-100.00,SSE,150,5.0,14.0,100,0.00,,,0.00,1.000000,,2013-09-19 04:01:00,
2013-09-18 23:13:00,59.0,59.0,-100.00,SSE,150,6.0,14.0,100,0.00,,,0.00,0.000000,,2013-09-19 04:13:00,
2013-09-18 23:44:00,59.0,59.0,-100.00,SSE,150,6.0,14.0,100,0.00,,,0.00,0.000000,,2013-09-19 04:44:00,
2013-09-18 23:54:00,59.0,59.0,-100.00,SSE,150,6.0,14.0,100,0.00,,,0.00,0.000000,,2013-09-19 04:54:00,